Regional Weather Roundup
Issued by NWS Cleveland, OH

Home | Current Version | Previous Version | Graphics & Text | Print | Product List | Glossary On
Versions: 1 2 3 4 5 6 7 8 9 10 11 12 13 14 15 16 17 18 19 20 21 22 23 24 25 26 27 28 29 30 31 32 33 34 35 36 37 38 39 40 41 42 43 44 45 46 47 48 49 50
000
ASUS41 KCLE 282000
RWRCLE
OHIO REGIONAL WEATHER ROUNDUP
NATIONAL WEATHER SERVICE WILMINGTON, OH
400 PM EDT THU JUL 28 2016

NOTE: "FAIR" INDICATES FEW OR NO CLOUDS BELOW 12,000 FEET WITH NO
SIGNIFICANT WEATHER AND/OR OBSTRUCTIONS TO VISIBILITY.

OHZ001>008-015>018-024>027-034-035-043-044-282100-
   NORTHWEST OHIO

CITY           SKY/WX    TMP DP  RH WIND       PRES   REMARKS
DEFIANCE       FAIR      85  67  54 NE7       29.88F
FINDLAY        PTSUNNY   87  62  43 NE8       29.86F
TOLEDO EXPRESS PTSUNNY   83  69  62 NE5       29.87F
TOLEDO EXEC    FAIR      84  69  60 NE12      29.89F
LIMA           PTSUNNY   84  67  56 E8        29.87F
$$

OHZ009>014-019>023-028>033-038-089-282100-
   NORTHEAST OHIO

CITY           SKY/WX    TMP DP  RH WIND       PRES   REMARKS
CLE-HOPKINS    CLOUDY    84  59  42 N8        29.89F
CLE-LAKEFRONT  FAIR      81  69  67 N9        29.86F
CUY CO. ARPT   CLOUDY    84  66  54 NE10      29.90S
LORAIN-ELYRIA  FAIR      82  65  56 NE9       29.88F
ASHTABULA      PTSUNNY   80  72  76 N3        29.89S
AKRON-CANTON   CLOUDY    78  67  68 S7        29.90F
WOOSTER        NOT AVBL
MANSFIELD      FAIR      84  65  52 NE6       29.89F
YOUNGSTOWN     CLOUDY    77  68  73 S8        29.90S
$$

OHZ042-051>053-060>062-070>072-077>081-282100-
  SOUTHWEST OHIO

CITY           SKY/WX    TMP DP  RH WIND       PRES   REMARKS
CINC-COVINGTON PTSUNNY   81  71  71 CALM      29.89F
CINC-LUNKEN    FAIR      80  74  81 S6        29.88F
HAMILTON       FAIR      82  71  69 CALM      29.88F
DAYTON         NOT AVBL
WRIGHT-PAT AFB NOT AVBL
DAYTON GENERAL PTSUNNY   81  69  67 CALM      29.88F
WILMINGTON     PTSUNNY   79  70  74 W5        29.89F
$$

OHZ036-037-039>041-045>050-054>059-063>069-073>076-082>088-282100-
  CENTRAL AND SOUTHEAST OHIO

CITY           SKY/WX    TMP DP  RH WIND       PRES   REMARKS
COLUMBUS       CLOUDY    79  70  74 S3        29.87F
OSU AIRPORT    PTSUNNY   81  70  69 CALM      29.87F
BOLTON FIELD   NOT AVBL
RICKENBACK AFB NOT AVBL
NEWARK         CLOUDY    77  72  84 SW8       29.88S
MARION         PTSUNNY   83  67  58 CALM      29.88F
LANCASTER      PTSUNNY   77  73  87 CALM      29.89S
ZANESVILLE     LGT RAIN  75  71  87 SE6       29.88F
NEW PHILLY     FAIR      75  68  78 CALM      29.90F
$$



USA.gov is the U.S. government's official web portal to all federal, state and local government web resources and services.